Year,Month,Day,Hour,Minute,Value (Times are PST for temperature in C)
2008,10,18,00,00,9.60
2008,10,18,00,01,9.60
2008,10,18,00,02,9.60
2008,10,18,00,03,9.60
2008,10,18,00,04,9.60
2008,10,18,00,05,9.60
2008,10,18,00,06,9.60
2008,10,18,00,07,9.60
2008,10,18,00,08,9.60
2008,10,18,00,09,9.60
2008,10,18,00,10,9.60
2008,10,18,00,11,9.60
2008,10,18,00,12,9.60
2008,10,18,00,13,9.60
2008,10,18,00,14,9.50
2008,10,18,00,15,9.50
2008,10,18,00,16,9.50
2008,10,18,00,17,9.50
2008,10,18,00,18,9.50
2008,10,18,00,19,9.50
2008,10,18,00,20,9.50
2008,10,18,00,21,9.50
2008,10,18,00,22,9.50
2008,10,18,00,23,9.50
2008,10,18,00,24,9.40
2008,10,18,00,25,9.40
2008,10,18,00,26,9.40
2008,10,18,00,27,9.40
2008,10,18,00,28,9.40
2008,10,18,00,29,9.40
2008,10,18,00,30,9.40
2008,10,18,00,31,9.40
2008,10,18,00,32,9.40
2008,10,18,00,33,9.40
2008,10,18,00,34,9.40
2008,10,18,00,35,9.40
2008,10,18,00,36,9.40
2008,10,18,00,37,9.40
2008,10,18,00,38,9.40
2008,10,18,00,39,9.30
2008,10,18,00,40,9.30
2008,10,18,00,41,9.30
2008,10,18,00,42,9.30
2008,10,18,00,43,9.30
2008,10,18,00,44,9.30
2008,10,18,00,45,9.30
2008,10,18,00,46,9.30
2008,10,18,00,47,9.30
2008,10,18,00,48,9.30
2008,10,18,00,49,9.30
2008,10,18,00,50,9.30
2008,10,18,00,51,9.30
2008,10,18,00,52,9.30
2008,10,18,00,53,9.30
2008,10,18,00,54,9.30
2008,10,18,00,55,9.20
2008,10,18,00,56,9.20
2008,10,18,00,57,9.20
2008,10,18,00,58,9.20
2008,10,18,00,59,9.20
2008,10,18,01,00,9.20
2008,10,18,01,01,9.20
2008,10,18,01,02,9.20
2008,10,18,01,03,9.20
2008,10,18,01,04,9.20
2008,10,18,01,05,9.20
2008,10,18,01,06,9.30
2008,10,18,01,07,9.30
2008,10,18,01,08,9.30
2008,10,18,01,09,9.30
2008,10,18,01,10,9.30
2008,10,18,01,11,9.20
2008,10,18,01,12,9.20
2008,10,18,01,13,9.20
2008,10,18,01,14,9.20
2008,10,18,01,15,9.20
2008,10,18,01,16,9.20
2008,10,18,01,17,9.20
2008,10,18,01,18,9.20
2008,10,18,01,19,9.20
2008,10,18,01,20,9.20
2008,10,18,01,21,9.20
2008,10,18,01,22,9.20
2008,10,18,01,23,9.20
2008,10,18,01,24,9.20
2008,10,18,01,25,9.20
2008,10,18,01,26,9.20
2008,10,18,01,27,9.20
2008,10,18,01,28,9.20
2008,10,18,01,29,9.20
2008,10,18,01,30,9.20
2008,10,18,01,31,9.20
2008,10,18,01,32,9.20
2008,10,18,01,33,9.20
2008,10,18,01,34,9.20
2008,10,18,01,35,9.20
2008,10,18,01,36,9.20
2008,10,18,01,37,9.20
2008,10,18,01,38,9.20
2008,10,18,01,39,9.20
2008,10,18,01,40,9.20
2008,10,18,01,41,9.20
2008,10,18,01,42,9.20
2008,10,18,01,43,9.20
2008,10,18,01,44,9.20
2008,10,18,01,45,9.20
2008,10,18,01,46,9.20
2008,10,18,01,47,9.20
2008,10,18,01,48,9.20
2008,10,18,01,49,9.20
2008,10,18,01,50,9.20
2008,10,18,01,51,9.20
2008,10,18,01,52,9.20
2008,10,18,01,53,9.20
2008,10,18,01,54,9.20
2008,10,18,01,55,9.20
2008,10,18,01,56,9.20
2008,10,18,01,57,9.20
2008,10,18,01,58,9.20
2008,10,18,01,59,9.20
2008,10,18,02,00,9.10
2008,10,18,02,01,9.10
2008,10,18,02,02,9.10
2008,10,18,02,03,9.10
2008,10,18,02,04,9.10
2008,10,18,02,05,9.10
2008,10,18,02,06,9.10
2008,10,18,02,07,9.10
2008,10,18,02,08,9.10
2008,10,18,02,09,9.00
2008,10,18,02,10,9.00
2008,10,18,02,11,9.00
2008,10,18,02,12,9.00
2008,10,18,02,13,9.00
2008,10,18,02,14,9.00
2008,10,18,02,15,9.00
2008,10,18,02,16,9.00
2008,10,18,02,17,8.90
2008,10,18,02,18,8.90
2008,10,18,02,19,8.90
2008,10,18,02,20,8.90
2008,10,18,02,21,8.90
2008,10,18,02,22,8.90
2008,10,18,02,23,8.90
2008,10,18,02,24,8.90
2008,10,18,02,25,8.90
2008,10,18,02,26,8.80
2008,10,18,02,27,8.80
2008,10,18,02,28,8.80
2008,10,18,02,29,8.80
2008,10,18,02,30,8.80
2008,10,18,02,31,8.70
2008,10,18,02,32,8.70
2008,10,18,02,33,8.70
2008,10,18,02,34,8.70
2008,10,18,02,35,8.70
2008,10,18,02,36,8.70
2008,10,18,02,37,8.70
2008,10,18,02,38,8.70
2008,10,18,02,39,8.70
2008,10,18,02,40,8.70
2008,10,18,02,41,8.70
2008,10,18,02,42,8.70
2008,10,18,02,43,8.70
2008,10,18,02,44,8.70
2008,10,18,02,45,8.70
2008,10,18,02,46,8.70
2008,10,18,02,47,8.60
2008,10,18,02,48,8.60
2008,10,18,02,49,8.60
2008,10,18,02,50,8.60
2008,10,18,02,51,8.60
2008,10,18,02,52,8.60
2008,10,18,02,53,8.60
2008,10,18,02,54,8.60
2008,10,18,02,55,8.60
2008,10,18,02,56,8.60
2008,10,18,02,57,8.60
2008,10,18,02,58,8.60
2008,10,18,02,59,8.60
2008,10,18,03,00,8.60
2008,10,18,03,01,8.50
2008,10,18,03,02,8.50
2008,10,18,03,03,8.50
2008,10,18,03,04,8.50
2008,10,18,03,05,8.50
2008,10,18,03,06,8.50
2008,10,18,03,07,8.50
2008,10,18,03,08,8.50
2008,10,18,03,09,8.50
2008,10,18,03,10,8.40
2008,10,18,03,11,8.40
2008,10,18,03,12,8.40
2008,10,18,03,13,8.40
2008,10,18,03,14,8.40
2008,10,18,03,15,8.40
2008,10,18,03,16,8.40
2008,10,18,03,17,8.30
2008,10,18,03,18,8.30
2008,10,18,03,19,8.30
2008,10,18,03,20,8.30
2008,10,18,03,21,8.30
2008,10,18,03,22,8.30
2008,10,18,03,23,8.30
2008,10,18,03,24,8.30
2008,10,18,03,25,8.30
2008,10,18,03,26,8.30
2008,10,18,03,27,8.30
2008,10,18,03,28,8.30
2008,10,18,03,29,8.30
2008,10,18,03,30,8.30
2008,10,18,03,31,8.30
2008,10,18,03,32,8.30
2008,10,18,03,33,8.30
2008,10,18,03,34,8.30
2008,10,18,03,35,8.30
2008,10,18,03,36,8.30
2008,10,18,03,37,8.30
2008,10,18,03,38,8.30
2008,10,18,03,39,8.30
2008,10,18,03,40,8.40
2008,10,18,03,41,8.40
2008,10,18,03,42,8.40
2008,10,18,03,43,8.40
2008,10,18,03,44,8.40
2008,10,18,03,45,8.40
2008,10,18,03,46,8.40
2008,10,18,03,47,8.40
2008,10,18,03,48,8.40
2008,10,18,03,49,8.40
2008,10,18,03,50,8.40
2008,10,18,03,51,8.40
2008,10,18,03,52,8.40
2008,10,18,03,53,8.40
2008,10,18,03,54,8.40
2008,10,18,03,55,8.40
2008,10,18,03,56,8.40
2008,10,18,03,57,8.40
2008,10,18,03,58,8.40
2008,10,18,03,59,8.40
2008,10,18,04,00,8.50
2008,10,18,04,01,8.50
2008,10,18,04,02,8.50
2008,10,18,04,03,8.50
2008,10,18,04,04,8.50
2008,10,18,04,05,8.50
2008,10,18,04,06,8.50
2008,10,18,04,07,8.50
2008,10,18,04,08,8.50
2008,10,18,04,09,8.50
2008,10,18,04,10,8.50
2008,10,18,04,11,8.50
2008,10,18,04,12,8.50
2008,10,18,04,13,8.50
2008,10,18,04,14,8.50
2008,10,18,04,15,8.50
2008,10,18,04,16,8.50
2008,10,18,04,17,8.50
2008,10,18,04,18,8.50
2008,10,18,04,19,8.50
2008,10,18,04,20,8.50
2008,10,18,04,21,8.40
2008,10,18,04,22,8.40
2008,10,18,04,23,8.40
2008,10,18,04,24,8.40
2008,10,18,04,25,8.40
2008,10,18,04,26,8.40
2008,10,18,04,27,8.40
2008,10,18,04,28,8.40
2008,10,18,04,29,8.40
2008,10,18,04,30,8.40
2008,10,18,04,31,8.30
2008,10,18,04,32,8.30
2008,10,18,04,33,8.30
2008,10,18,04,34,8.30
2008,10,18,04,35,8.30
2008,10,18,04,36,8.30
2008,10,18,04,37,8.30
2008,10,18,04,38,8.30
2008,10,18,04,39,8.30
2008,10,18,04,40,8.20
2008,10,18,04,41,8.20
2008,10,18,04,42,8.20
2008,10,18,04,43,8.20
2008,10,18,04,44,8.20
2008,10,18,04,45,8.20
2008,10,18,04,46,8.20
2008,10,18,04,47,8.20
2008,10,18,04,48,8.20
2008,10,18,04,49,8.20
2008,10,18,04,50,8.20
2008,10,18,04,51,8.20
2008,10,18,04,52,8.10
2008,10,18,04,53,8.10
2008,10,18,04,54,8.10
2008,10,18,04,55,8.10
2008,10,18,04,56,8.10
2008,10,18,04,57,8.10
2008,10,18,04,58,8.10
2008,10,18,04,59,8.10
2008,10,18,05,00,8.10
2008,10,18,05,01,8.00
2008,10,18,05,02,8.00
2008,10,18,05,03,8.00
2008,10,18,05,04,8.00
2008,10,18,05,05,8.00
2008,10,18,05,06,8.00
2008,10,18,05,07,7.90
2008,10,18,05,08,7.90
2008,10,18,05,09,7.90
2008,10,18,05,10,7.80
2008,10,18,05,11,7.80
2008,10,18,05,12,7.80
2008,10,18,05,13,7.80
2008,10,18,05,14,7.80
2008,10,18,05,15,7.70
2008,10,18,05,16,7.60
2008,10,18,05,17,7.60
2008,10,18,05,18,7.50
2008,10,18,05,19,7.50
2008,10,18,05,20,7.40
2008,10,18,05,21,7.40
2008,10,18,05,22,7.40
2008,10,18,05,23,7.40
2008,10,18,05,24,7.40
2008,10,18,05,25,7.40
2008,10,18,05,26,7.40
2008,10,18,05,27,7.40
2008,10,18,05,28,7.40
2008,10,18,05,29,7.30
2008,10,18,05,30,7.30
2008,10,18,05,31,7.30
2008,10,18,05,32,7.30
2008,10,18,05,33,7.20
2008,10,18,05,34,7.20
2008,10,18,05,35,7.20
2008,10,18,05,36,7.10
2008,10,18,05,37,7.10
2008,10,18,05,38,7.10
2008,10,18,05,39,7.10
2008,10,18,05,40,7.00
2008,10,18,05,41,7.00
2008,10,18,05,42,7.00
2008,10,18,05,43,6.90
2008,10,18,05,44,6.90
2008,10,18,05,45,6.80
2008,10,18,05,46,6.80
2008,10,18,05,47,6.70
2008,10,18,05,48,6.70
2008,10,18,05,49,6.60
2008,10,18,05,50,6.60
2008,10,18,05,51,6.60
2008,10,18,05,52,6.60
2008,10,18,05,53,6.60
2008,10,18,05,54,6.60
2008,10,18,05,55,6.60
2008,10,18,05,56,6.60
2008,10,18,05,57,6.60
2008,10,18,05,58,6.60
2008,10,18,05,59,6.60
2008,10,18,06,00,6.60
2008,10,18,06,01,6.50
2008,10,18,06,02,6.40
2008,10,18,06,03,6.40
2008,10,18,06,04,6.30
2008,10,18,06,05,6.20
2008,10,18,06,06,6.20
2008,10,18,06,07,6.20
2008,10,18,06,08,6.20
2008,10,18,06,09,6.30
2008,10,18,06,10,6.30
2008,10,18,06,11,6.40
2008,10,18,06,12,6.40
2008,10,18,06,13,6.60
2008,10,18,06,14,6.60
2008,10,18,06,15,6.70
2008,10,18,06,16,6.70
2008,10,18,06,17,6.70
2008,10,18,06,18,6.70
2008,10,18,06,19,6.70
2008,10,18,06,20,6.60
2008,10,18,06,21,6.40
2008,10,18,06,22,6.30
2008,10,18,06,23,6.20
2008,10,18,06,24,6.10
2008,10,18,06,25,6.00
2008,10,18,06,26,5.90
2008,10,18,06,27,5.80
2008,10,18,06,28,5.70
2008,10,18,06,29,5.70
2008,10,18,06,30,5.70
2008,10,18,06,31,5.70
2008,10,18,06,32,5.70
2008,10,18,06,33,5.70
2008,10,18,06,34,5.70
2008,10,18,06,35,5.70
2008,10,18,06,36,5.60
2008,10,18,06,37,5.60
2008,10,18,06,38,5.50
2008,10,18,06,39,5.50
2008,10,18,06,40,5.40
2008,10,18,06,41,5.40
2008,10,18,06,42,5.40
2008,10,18,06,43,5.40
2008,10,18,06,44,5.30
2008,10,18,06,45,5.30
2008,10,18,06,46,5.30
2008,10,18,06,47,5.30
2008,10,18,06,48,5.30
2008,10,18,06,49,5.30
2008,10,18,06,50,5.20
2008,10,18,06,51,5.20
2008,10,18,06,52,5.20
2008,10,18,06,53,5.10
2008,10,18,06,54,5.10
2008,10,18,06,55,5.10
2008,10,18,06,56,5.10
2008,10,18,06,57,4.90
2008,10,18,06,58,4.90
2008,10,18,06,59,4.90
2008,10,18,07,00,4.90
2008,10,18,07,01,4.90
2008,10,18,07,02,4.90
2008,10,18,07,03,4.90
2008,10,18,07,04,4.90
2008,10,18,07,05,4.90
2008,10,18,07,06,4.90
2008,10,18,07,07,4.90
2008,10,18,07,08,4.80
2008,10,18,07,09,4.80
2008,10,18,07,10,4.80
2008,10,18,07,11,4.80
2008,10,18,07,12,4.80
2008,10,18,07,13,4.80
2008,10,18,07,14,4.70
2008,10,18,07,15,4.70
2008,10,18,07,16,4.70
2008,10,18,07,17,4.70
2008,10,18,07,18,4.80
2008,10,18,07,19,4.80
2008,10,18,07,20,4.80
2008,10,18,07,21,4.80
2008,10,18,07,22,4.80
2008,10,18,07,23,4.80
2008,10,18,07,24,4.90
2008,10,18,07,25,4.90
2008,10,18,07,26,4.90
2008,10,18,07,27,4.90
2008,10,18,07,28,4.90
2008,10,18,07,29,4.90
2008,10,18,07,30,4.90
2008,10,18,07,31,4.90
2008,10,18,07,32,4.90
2008,10,18,07,33,4.90
2008,10,18,07,34,4.90
2008,10,18,07,35,4.90
2008,10,18,07,36,4.90
2008,10,18,07,37,4.90
2008,10,18,07,38,4.90
2008,10,18,07,39,4.90
2008,10,18,07,40,4.90
2008,10,18,07,41,4.90
2008,10,18,07,42,4.80
2008,10,18,07,43,4.80
2008,10,18,07,44,4.70
2008,10,18,07,45,4.70
2008,10,18,07,46,4.70
2008,10,18,07,47,4.60
2008,10,18,07,48,4.60
2008,10,18,07,49,4.60
2008,10,18,07,50,4.50
2008,10,18,07,51,4.50
2008,10,18,07,52,4.40
2008,10,18,07,53,4.40
2008,10,18,07,54,4.40
2008,10,18,07,55,4.40
2008,10,18,07,56,4.40
2008,10,18,07,57,4.40
2008,10,18,07,58,4.40
2008,10,18,07,59,4.30
2008,10,18,08,00,4.30
2008,10,18,08,01,4.40
2008,10,18,08,02,4.40
2008,10,18,08,03,4.40
2008,10,18,08,04,4.50
2008,10,18,08,05,4.50
2008,10,18,08,06,4.50
2008,10,18,08,07,4.50
2008,10,18,08,08,4.50
2008,10,18,08,09,4.60
2008,10,18,08,10,4.60
2008,10,18,08,11,4.60
2008,10,18,08,12,4.60
2008,10,18,08,13,4.60
2008,10,18,08,14,4.70
2008,10,18,08,15,4.70
2008,10,18,08,16,4.80
2008,10,18,08,17,4.90
2008,10,18,08,18,4.90
2008,10,18,08,19,4.90
2008,10,18,08,20,5.00
2008,10,18,08,21,5.10
2008,10,18,08,22,5.10
2008,10,18,08,23,5.10
2008,10,18,08,24,5.10
2008,10,18,08,25,5.20
2008,10,18,08,26,5.20
2008,10,18,08,27,5.30
2008,10,18,08,28,5.30
2008,10,18,08,29,5.30
2008,10,18,08,30,5.30
2008,10,18,08,31,5.40
2008,10,18,08,32,5.40
2008,10,18,08,33,5.50
2008,10,18,08,34,5.50
2008,10,18,08,35,5.50
2008,10,18,08,36,5.50
2008,10,18,08,37,5.50
2008,10,18,08,38,5.50
2008,10,18,08,39,5.50
2008,10,18,08,40,5.50
2008,10,18,08,41,5.50
2008,10,18,08,42,5.60
2008,10,18,08,43,5.60
2008,10,18,08,44,5.60
2008,10,18,08,45,5.60
2008,10,18,08,46,5.70
2008,10,18,08,47,5.70
2008,10,18,08,48,5.70
2008,10,18,08,49,5.70
2008,10,18,08,50,5.70
2008,10,18,08,51,5.70
2008,10,18,08,52,5.80
2008,10,18,08,53,5.80
2008,10,18,08,54,5.80
2008,10,18,08,55,5.70
2008,10,18,08,56,5.70
2008,10,18,08,57,5.70
2008,10,18,08,58,5.70
2008,10,18,08,59,5.80
2008,10,18,09,00,5.80
2008,10,18,09,01,5.90
2008,10,18,09,02,6.00
2008,10,18,09,03,6.00
2008,10,18,09,04,6.10
2008,10,18,09,05,6.20
2008,10,18,09,06,6.20
2008,10,18,09,07,6.20
2008,10,18,09,08,6.30
2008,10,18,09,09,6.30
2008,10,18,09,10,6.40
2008,10,18,09,11,6.40
2008,10,18,09,12,6.40
2008,10,18,09,13,6.50
2008,10,18,09,14,6.60
2008,10,18,09,15,6.60
2008,10,18,09,16,6.70
2008,10,18,09,17,6.70
2008,10,18,09,18,6.80
2008,10,18,09,19,6.90
2008,10,18,09,20,7.10
2008,10,18,09,21,7.30
2008,10,18,09,22,7.40
2008,10,18,09,23,7.60
2008,10,18,09,24,7.60
2008,10,18,09,25,7.70
2008,10,18,09,26,7.80
2008,10,18,09,27,7.90
2008,10,18,09,28,8.00
2008,10,18,09,29,8.20
2008,10,18,09,30,8.30
2008,10,18,09,31,8.40
2008,10,18,09,32,8.50
2008,10,18,09,33,8.70
2008,10,18,09,34,8.70
2008,10,18,09,35,8.90
2008,10,18,09,36,8.90
2008,10,18,09,37,9.00
2008,10,18,09,38,9.10
2008,10,18,09,39,9.20
2008,10,18,09,40,9.30
2008,10,18,09,41,9.40
2008,10,18,09,42,9.50
2008,10,18,09,43,9.50
2008,10,18,09,44,9.60
2008,10,18,09,45,9.70
2008,10,18,09,46,9.70
2008,10,18,09,47,9.80
2008,10,18,09,48,9.90
2008,10,18,09,49,9.90
2008,10,18,09,50,9.90
2008,10,18,09,51,9.90
2008,10,18,09,52,10.00
2008,10,18,09,53,10.10
2008,10,18,09,54,10.10
2008,10,18,09,55,10.10
2008,10,18,09,56,10.20
2008,10,18,09,57,10.20
2008,10,18,09,58,10.10
2008,10,18,09,59,10.10
2008,10,18,10,00,10.10
2008,10,18,10,01,9.90
2008,10,18,10,02,9.90
2008,10,18,10,03,9.90
2008,10,18,10,04,9.90
2008,10,18,10,05,10.00
2008,10,18,10,06,10.10
2008,10,18,10,07,10.20
2008,10,18,10,08,10.30
2008,10,18,10,09,10.40
2008,10,18,10,10,10.40
2008,10,18,10,11,10.40
2008,10,18,10,12,10.50
2008,10,18,10,13,10.60
2008,10,18,10,14,10.60
2008,10,18,10,15,10.70
2008,10,18,10,16,10.70
2008,10,18,10,17,10.70
2008,10,18,10,18,10.70
2008,10,18,10,19,10.70
2008,10,18,10,20,10.80
2008,10,18,10,21,10.90
2008,10,18,10,22,10.90
2008,10,18,10,23,11.10
2008,10,18,10,24,11.10
2008,10,18,10,25,11.20
2008,10,18,10,26,11.20
2008,10,18,10,27,11.20
2008,10,18,10,28,11.20
2008,10,18,10,29,11.30
2008,10,18,10,30,11.30
2008,10,18,10,31,11.30
2008,10,18,10,32,11.20
2008,10,18,10,33,11.20
2008,10,18,10,34,11.20
2008,10,18,10,35,11.20
2008,10,18,10,36,11.20
2008,10,18,10,37,11.20
2008,10,18,10,38,11.20
2008,10,18,10,39,11.30
2008,10,18,10,40,11.30
2008,10,18,10,41,11.40
2008,10,18,10,42,11.40
2008,10,18,10,43,11.40
2008,10,18,10,44,11.50
2008,10,18,10,45,11.60
2008,10,18,10,46,11.60
2008,10,18,10,47,11.60
2008,10,18,10,48,11.60
2008,10,18,10,49,11.50
2008,10,18,10,50,11.40
2008,10,18,10,51,11.40
2008,10,18,10,52,11.40
2008,10,18,10,53,11.50
2008,10,18,10,54,11.60
2008,10,18,10,55,11.50
2008,10,18,10,56,11.40
2008,10,18,10,57,11.40
2008,10,18,10,58,11.40
2008,10,18,10,59,11.60
2008,10,18,11,00,11.60
2008,10,18,11,01,11.70
2008,10,18,11,02,11.70
2008,10,18,11,03,11.60
2008,10,18,11,04,11.60
2008,10,18,11,05,11.60
2008,10,18,11,06,11.60
2008,10,18,11,07,11.60
2008,10,18,11,08,11.60
2008,10,18,11,09,11.60
2008,10,18,11,10,11.60
2008,10,18,11,11,11.60
2008,10,18,11,12,11.60
2008,10,18,11,13,11.60
2008,10,18,11,14,11.60
2008,10,18,11,15,11.60
2008,10,18,11,16,11.60
2008,10,18,11,17,11.60
2008,10,18,11,18,11.70
2008,10,18,11,19,11.70
2008,10,18,11,20,11.70
2008,10,18,11,21,11.70
2008,10,18,11,22,11.70
2008,10,18,11,23,11.60
2008,10,18,11,24,11.60
2008,10,18,11,25,11.60
2008,10,18,11,26,11.60
2008,10,18,11,27,11.60
2008,10,18,11,28,11.50
2008,10,18,11,29,11.40
2008,10,18,11,30,11.40
2008,10,18,11,31,11.40
2008,10,18,11,32,11.40
2008,10,18,11,33,11.40
2008,10,18,11,34,11.40
2008,10,18,11,35,11.40
2008,10,18,11,36,11.50
2008,10,18,11,37,11.60
2008,10,18,11,38,11.60
2008,10,18,11,39,11.60
2008,10,18,11,40,11.60
2008,10,18,11,41,11.60
2008,10,18,11,42,11.60
2008,10,18,11,43,11.60
2008,10,18,11,44,11.60
2008,10,18,11,45,11.60
2008,10,18,11,46,11.60
2008,10,18,11,47,11.60
2008,10,18,11,48,11.60
2008,10,18,11,49,11.60
2008,10,18,11,50,11.60
2008,10,18,11,51,11.60
2008,10,18,11,52,11.60
2008,10,18,11,53,11.60
2008,10,18,11,54,11.60
2008,10,18,11,55,11.60
2008,10,18,11,56,11.60
2008,10,18,11,57,11.60
2008,10,18,11,58,11.60
2008,10,18,11,59,11.60
2008,10,18,12,00,11.60
2008,10,18,12,01,11.60
2008,10,18,12,02,11.60
2008,10,18,12,03,11.60
2008,10,18,12,04,11.60
2008,10,18,12,05,11.60
2008,10,18,12,06,11.60
2008,10,18,12,07,11.60
2008,10,18,12,08,11.60
2008,10,18,12,09,11.60
2008,10,18,12,10,11.60
2008,10,18,12,11,11.80
2008,10,18,12,12,11.80
2008,10,18,12,13,11.80
2008,10,18,12,14,11.80
2008,10,18,12,15,11.80
2008,10,18,12,16,12.00
2008,10,18,12,17,12.00
2008,10,18,12,18,12.10
2008,10,18,12,19,12.10
2008,10,18,12,20,12.20
2008,10,18,12,21,12.10
2008,10,18,12,22,12.10
2008,10,18,12,23,12.10
2008,10,18,12,24,12.00
2008,10,18,12,25,12.10
2008,10,18,12,26,12.10
2008,10,18,12,27,12.20
2008,10,18,12,28,12.10
2008,10,18,12,29,12.10
2008,10,18,12,30,12.20
2008,10,18,12,31,12.20
2008,10,18,12,32,12.30
2008,10,18,12,33,12.30
2008,10,18,12,34,12.30
2008,10,18,12,35,12.30
2008,10,18,12,36,12.30
2008,10,18,12,37,12.40
2008,10,18,12,38,12.40
2008,10,18,12,39,12.30
2008,10,18,12,40,12.20
2008,10,18,12,41,12.10
2008,10,18,12,42,12.10
2008,10,18,12,43,12.10
2008,10,18,12,44,12.00
2008,10,18,12,45,11.90
2008,10,18,12,46,11.90
2008,10,18,12,47,11.80
2008,10,18,12,48,11.80
2008,10,18,12,49,11.90
2008,10,18,12,50,12.00
2008,10,18,12,51,12.10
2008,10,18,12,52,12.20
2008,10,18,12,53,12.30
2008,10,18,12,54,12.30
2008,10,18,12,55,12.40
2008,10,18,12,56,12.40
2008,10,18,12,57,12.40
2008,10,18,12,58,12.30
2008,10,18,12,59,12.30
2008,10,18,13,00,12.30
2008,10,18,13,01,12.30
2008,10,18,13,02,12.20
2008,10,18,13,03,12.20
2008,10,18,13,04,12.20
2008,10,18,13,05,12.30
2008,10,18,13,06,12.30
2008,10,18,13,07,12.30
2008,10,18,13,08,12.30
2008,10,18,13,09,12.30
2008,10,18,13,10,12.30
2008,10,18,13,11,12.30
2008,10,18,13,12,12.30
2008,10,18,13,13,12.30
2008,10,18,13,14,12.30
2008,10,18,13,15,12.30
2008,10,18,13,16,12.30
2008,10,18,13,17,12.30
2008,10,18,13,18,12.40
2008,10,18,13,19,12.50
2008,10,18,13,20,12.40
2008,10,18,13,21,12.40
2008,10,18,13,22,12.40
2008,10,18,13,23,12.30
2008,10,18,13,24,12.30
2008,10,18,13,25,12.30
2008,10,18,13,26,12.30
2008,10,18,13,27,12.30
2008,10,18,13,28,12.40
2008,10,18,13,29,12.40
2008,10,18,13,30,12.50
2008,10,18,13,31,12.60
2008,10,18,13,32,12.60
2008,10,18,13,33,12.80
2008,10,18,13,34,12.80
2008,10,18,13,35,12.70
2008,10,18,13,36,12.70
2008,10,18,13,37,12.70
2008,10,18,13,38,12.70
2008,10,18,13,39,12.70
2008,10,18,13,40,12.70
2008,10,18,13,41,12.70
2008,10,18,13,42,12.60
2008,10,18,13,43,12.60
2008,10,18,13,44,12.50
2008,10,18,13,45,12.40
2008,10,18,13,46,12.30
2008,10,18,13,47,12.30
2008,10,18,13,48,12.30
2008,10,18,13,49,12.30
2008,10,18,13,50,12.40
2008,10,18,13,51,12.40
2008,10,18,13,52,12.40
2008,10,18,13,53,12.40
2008,10,18,13,54,12.40
2008,10,18,13,55,12.40
2008,10,18,13,56,12.30
2008,10,18,13,57,12.30
2008,10,18,13,58,12.30
2008,10,18,13,59,12.30
2008,10,18,14,00,12.30
2008,10,18,14,01,12.30
2008,10,18,14,02,12.30
2008,10,18,14,03,12.30
2008,10,18,14,04,12.30
2008,10,18,14,05,12.40
2008,10,18,14,06,12.40
2008,10,18,14,07,12.40
2008,10,18,14,08,12.40
2008,10,18,14,09,12.40
2008,10,18,14,10,12.40
2008,10,18,14,11,12.50
2008,10,18,14,12,12.50
2008,10,18,14,13,12.50
2008,10,18,14,14,12.50
2008,10,18,14,15,12.50
2008,10,18,14,16,12.40
2008,10,18,14,17,12.40
2008,10,18,14,18,12.30
2008,10,18,14,19,12.30
2008,10,18,14,20,12.30
2008,10,18,14,21,12.30
2008,10,18,14,22,12.30
2008,10,18,14,23,12.30
2008,10,18,14,24,12.30
2008,10,18,14,25,12.30
2008,10,18,14,26,12.30
2008,10,18,14,27,12.30
2008,10,18,14,28,12.30
2008,10,18,14,29,12.40
2008,10,18,14,30,12.40
2008,10,18,14,31,12.40
2008,10,18,14,32,12.40
2008,10,18,14,33,12.40
2008,10,18,14,34,12.30
2008,10,18,14,35,12.30
2008,10,18,14,36,12.30
2008,10,18,14,37,12.30
2008,10,18,14,38,12.30
2008,10,18,14,39,12.40
2008,10,18,14,40,12.50
2008,10,18,14,41,12.50
2008,10,18,14,42,12.60
2008,10,18,14,43,12.70
2008,10,18,14,44,12.80
2008,10,18,14,45,12.90
2008,10,18,14,46,12.90
2008,10,18,14,47,12.90
2008,10,18,14,48,12.80
2008,10,18,14,49,12.70
2008,10,18,14,50,12.70
2008,10,18,14,51,12.60
2008,10,18,14,52,12.60
2008,10,18,14,53,12.60
2008,10,18,14,54,12.70
2008,10,18,14,55,12.80
2008,10,18,14,56,12.90
2008,10,18,14,57,12.90
2008,10,18,14,58,13.00
2008,10,18,14,59,12.90
2008,10,18,15,00,12.90
2008,10,18,15,01,12.80
2008,10,18,15,02,12.80
2008,10,18,15,03,12.80
2008,10,18,15,04,12.80
2008,10,18,15,05,12.80
2008,10,18,15,06,12.70
2008,10,18,15,07,12.70
2008,10,18,15,08,12.60
2008,10,18,15,09,12.60
2008,10,18,15,10,12.60
2008,10,18,15,11,12.50
2008,10,18,15,12,12.50
2008,10,18,15,13,12.60
2008,10,18,15,14,12.70
2008,10,18,15,15,12.80
2008,10,18,15,16,12.80
2008,10,18,15,17,12.80
2008,10,18,15,18,12.80
2008,10,18,15,19,12.80
2008,10,18,15,20,12.80
2008,10,18,15,21,12.80
2008,10,18,15,22,12.70
2008,10,18,15,23,12.80
2008,10,18,15,24,12.80
2008,10,18,15,25,12.80
2008,10,18,15,26,12.80
2008,10,18,15,27,12.60
2008,10,18,15,28,12.60
2008,10,18,15,29,12.70
2008,10,18,15,30,12.60
2008,10,18,15,31,12.60
2008,10,18,15,32,12.60
2008,10,18,15,33,12.70
2008,10,18,15,34,12.70
2008,10,18,15,35,12.60
2008,10,18,15,36,12.70
2008,10,18,15,37,12.70
2008,10,18,15,38,12.80
2008,10,18,15,39,12.80
2008,10,18,15,40,12.90
2008,10,18,15,41,13.00
2008,10,18,15,42,13.10
2008,10,18,15,43,13.20
2008,10,18,15,44,13.20
2008,10,18,15,45,13.20
2008,10,18,15,46,13.00
2008,10,18,15,47,12.90
2008,10,18,15,48,12.80
2008,10,18,15,49,12.70
2008,10,18,15,50,12.60
2008,10,18,15,51,12.60
2008,10,18,15,52,12.60
2008,10,18,15,53,12.70
2008,10,18,15,54,12.70
2008,10,18,15,55,12.80
2008,10,18,15,56,12.80
2008,10,18,15,57,12.80
2008,10,18,15,58,12.80
2008,10,18,15,59,12.80
2008,10,18,16,00,12.80
2008,10,18,16,01,12.60
2008,10,18,16,02,12.40
2008,10,18,16,03,12.30
2008,10,18,16,04,12.30
2008,10,18,16,05,12.20
2008,10,18,16,06,12.30
2008,10,18,16,07,12.20
2008,10,18,16,08,12.10
2008,10,18,16,09,12.00
2008,10,18,16,10,11.90
2008,10,18,16,11,11.80
2008,10,18,16,12,11.80
2008,10,18,16,13,11.80
2008,10,18,16,14,11.80
2008,10,18,16,15,11.90
2008,10,18,16,16,11.90
2008,10,18,16,17,12.00
2008,10,18,16,18,12.10
2008,10,18,16,19,12.10
2008,10,18,16,20,12.20
2008,10,18,16,21,12.30
2008,10,18,16,22,12.30
2008,10,18,16,23,12.30
2008,10,18,16,24,12.30
2008,10,18,16,25,12.30
2008,10,18,16,26,12.30
2008,10,18,16,27,12.30
2008,10,18,16,28,12.30
2008,10,18,16,29,12.30
2008,10,18,16,30,12.20
2008,10,18,16,31,12.10
2008,10,18,16,32,12.00
2008,10,18,16,33,11.90
2008,10,18,16,34,11.80
2008,10,18,16,35,11.80
2008,10,18,16,36,11.80
2008,10,18,16,37,11.80
2008,10,18,16,38,11.80
2008,10,18,16,39,11.80
2008,10,18,16,40,11.80
2008,10,18,16,41,11.80
2008,10,18,16,42,11.80
2008,10,18,16,43,11.80
2008,10,18,16,44,11.80
2008,10,18,16,45,11.90
2008,10,18,16,46,11.90
2008,10,18,16,47,11.90
2008,10,18,16,48,12.00
2008,10,18,16,49,12.00
2008,10,18,16,50,12.00
2008,10,18,16,51,12.00
2008,10,18,16,52,12.00
2008,10,18,16,53,11.90
2008,10,18,16,54,11.90
2008,10,18,16,55,12.00
2008,10,18,16,56,11.90
2008,10,18,16,57,12.00
2008,10,18,16,58,12.00
2008,10,18,16,59,11.90
2008,10,18,17,00,12.00
2008,10,18,17,01,12.00
2008,10,18,17,02,12.00
2008,10,18,17,03,12.00
2008,10,18,17,04,12.00
2008,10,18,17,05,12.00
2008,10,18,17,06,12.00
2008,10,18,17,07,12.00
2008,10,18,17,08,12.00
2008,10,18,17,09,12.00
2008,10,18,17,10,12.00
2008,10,18,17,11,12.00
2008,10,18,17,12,12.00
2008,10,18,17,13,12.00
2008,10,18,17,14,12.00
2008,10,18,17,15,12.00
2008,10,18,17,16,11.90
2008,10,18,17,17,11.90
2008,10,18,17,18,11.80
2008,10,18,17,19,11.80
2008,10,18,17,20,11.80
2008,10,18,17,21,11.80
2008,10,18,17,22,11.70
2008,10,18,17,23,11.70
2008,10,18,17,24,11.70
2008,10,18,17,25,11.70
2008,10,18,17,26,11.70
2008,10,18,17,27,11.70
2008,10,18,17,28,11.70
2008,10,18,17,29,11.70
2008,10,18,17,30,11.70
2008,10,18,17,31,11.60
2008,10,18,17,32,11.60
2008,10,18,17,33,11.60
2008,10,18,17,34,11.60
2008,10,18,17,35,11.60
2008,10,18,17,36,11.60
2008,10,18,17,37,11.40
2008,10,18,17,38,11.40
2008,10,18,17,39,11.40
2008,10,18,17,40,11.40
2008,10,18,17,41,11.40
2008,10,18,17,42,11.40
2008,10,18,17,43,11.40
2008,10,18,17,44,11.40
2008,10,18,17,45,11.40